Weather History for KIRK - February, 2013

Change the Weather History Date:

Tuesday, February 5, 2013

  Actual Average Record
Temperature  
Mean Temperature 35 °F 27 °F  
Max Temperature 49 °F 37 °F - ()
Min Temperature 20 °F 18 °F - ()
Degree Days  
Heating Degree Days 30 38  
Month to date heating degree days 198 190  
Since 1 July heating degree days 3574 3737  
Cooling Degree Days 0 0  
Month to date cooling degree days 0 0  
Year to date cooling degree days 0 0  
Moisture  
Dew Point 25 °F    
Average Humidity 75    
Maximum Humidity 100    
Minimum Humidity 50    
Precipitation  
Precipitation 0.00 in 0.05 in - ()
Month to date precipitation 0.11 0.26  
Year to date precipitation 2.21 1.53  
Sea Level Pressure  
Sea Level Pressure 30.00 in    
Wind  
Wind Speed 7 mph (West)    
Max Wind Speed 17 mph    
Max Gust Speed 23 mph    
Visibility 8 miles    
Events      
T = Trace of Precipitation, MM = Missing Value Source: NWS Daily Summary

Daily Weather History Graph

Daily Weather History Graph

Search for Another Location

Airport or City:

Trip Planner

Search our weather history database for the weather conditions in past years. The results will help you decide how hot, cold, wet, or windy it might be!

Date:

Astronomy

Feb. 05, 2013 Rise Set
Actual Time 7:14 AM CST 5:34 PM CST
Civil Twilight 6:46 AM CST 6:02 PM CST
Nautical Twilight 6:14 AM CST 6:34 PM CST
Astronomical Twilight 5:42 AM CST 7:06 PM CST
Moon 2:56 AM CST (2/5) 12:52 PM CST (2/5)
Length of Visible Light 11h 16m
Length of Day
10h 19m
Waning Crescent, 26% of the Moon is Illuminated
Feb 5
Waning Crescent
Feb 10
New
Feb 17
First Quarter
Feb 25
Full
Mar 4
Last Quarter

Hourly Weather History & Observations

Time (CST) Temp. Windchill Dew Point Humidity Pressure Visibility Wind Dir Wind Speed Gust Speed Precip Events Conditions
12:55 AM 21.9 °F 17.2 °F 19.0 °F 89% 29.99 in 6.0 mi SW 3.5 mph - N/A   Overcast
1:55 AM 23.0 °F 15.8 °F 19.9 °F 88% 29.97 in 7.0 mi South 5.8 mph - N/A   Mostly Cloudy
2:55 AM 23.0 °F 18.4 °F 19.9 °F 88% 29.96 in 7.0 mi South 3.5 mph - N/A   Overcast
3:55 AM 24.1 °F 15.2 °F 19.9 °F 84% 29.94 in 6.0 mi SSW 8.1 mph - N/A   Overcast
4:55 AM 24.1 °F 17.0 °F 21.0 °F 88% 29.93 in 6.0 mi SSW 5.8 mph - N/A   Overcast
5:55 AM 24.1 °F 19.7 °F 21.0 °F 88% 29.95 in 5.0 mi SW 3.5 mph - N/A   Overcast
6:55 AM 24.1 °F 15.2 °F 21.0 °F 88% 29.93 in 5.0 mi SW 8.1 mph - N/A   Overcast
7:55 AM 25.0 °F 17.1 °F 21.0 °F 85% 29.94 in 4.0 mi SW 6.9 mph - N/A   Clear
8:55 AM 28.0 °F 20.8 °F 23.0 °F 81% 29.95 in 5.0 mi WSW 6.9 mph - N/A   Haze
9:55 AM 33.1 °F 24.9 °F 25.0 °F 72% 29.93 in 7.0 mi West 10.4 mph 17.3 mph N/A   Clear
10:55 AM 37.9 °F 32.1 °F 27.0 °F 65% 29.94 in 9.0 mi West 8.1 mph 18.4 mph N/A   Clear
11:55 AM 41.0 °F 33.5 °F 28.9 °F 62% 29.95 in 10.0 mi WNW 13.8 mph 18.4 mph N/A   Clear
12:55 PM 44.1 °F 37.4 °F 30.0 °F 58% 29.94 in 10.0 mi West 13.8 mph 18.4 mph N/A   Clear
1:55 PM 46.9 °F - 30.9 °F 54% 29.95 in 10.0 mi WNW 15.0 mph 21.9 mph N/A   Clear
2:55 PM 48.0 °F - 30.9 °F 52% 29.98 in 10.0 mi WNW 13.8 mph 23.0 mph N/A   Clear
3:55 PM 46.0 °F 41.0 °F 30.9 °F 56% 30.01 in 10.0 mi NW 10.4 mph - N/A   Clear
4:55 PM 44.1 °F 40.8 °F 30.9 °F 60% 30.03 in 10.0 mi NNW 5.8 mph - N/A   Clear
5:55 PM 39.0 °F 36.8 °F 28.9 °F 67% 30.05 in 10.0 mi NW 3.5 mph - N/A   Clear
6:55 PM 34.0 °F 31.0 °F 28.0 °F 79% 30.07 in 10.0 mi North 3.5 mph - N/A   Clear
7:55 PM 30.9 °F 22.2 °F 28.0 °F 89% 30.11 in 10.0 mi NNE 10.4 mph - N/A   Clear
8:55 PM 30.0 °F 24.1 °F 27.0 °F 88% 30.13 in 10.0 mi NNE 5.8 mph - N/A   Clear
9:55 PM 27.0 °F - 25.0 °F 92% 30.14 in 6.0 mi Calm Calm - N/A   Clear
10:55 PM 25.0 °F - 25.0 °F 100% 30.14 in 5.0 mi Calm Calm - N/A   Clear
11:55 PM 27.0 °F 20.5 °F 25.0 °F 92% 30.16 in 6.0 mi SSW 5.8 mph - N/A   Clear